Hurlburt Field, FL

3:04 AM CDT on July 22, 2017 (GMT -0500)
Hurlburt

Weather History for KHRT - July, 2013

Change the Weather History Date:

Friday, July 26, 2013

  Actual Average Record
Temperature  
Mean Temperature 80 °F -  
Max Temperature 88 °F 87 °F 93 °F (2012)
Min Temperature 74 °F 73 °F 46 °F (1999)
Cooling Degree Days 16    
Growing Degree Days 30 (Base 50)    
Moisture  
Dew Point 72 °F    
Average Humidity 73    
Maximum Humidity 89    
Minimum Humidity 55    
Precipitation  
Precipitation 0.00 in - - ()
Sea Level Pressure  
Sea Level Pressure 30.01 in    
Wind  
Wind Speed 6 mph (NW)    
Max Wind Speed 15 mph    
Max Gust Speed -    
Visibility 10 miles    
Events Rain    
Averages and records for this station are not official NWS values.
T = Trace of Precipitation, MM = Missing Value Source: NWS Daily Summary

Daily Weather History Graph

Daily Weather History Graph

Search for Another Location

Airport or City:

Trip Planner

Search our weather history database for the weather conditions in past years. The results will help you decide how hot, cold, wet, or windy it might be!

Date:

Astronomy

Jul. 26, 2013 Rise Set
Actual Time 6:01 AM CDT 7:44 PM CDT
Civil Twilight 5:35 AM CDT 8:11 PM CDT
Nautical Twilight 5:03 AM CDT 8:42 PM CDT
Astronomical Twilight 4:29 AM CDT 9:16 PM CDT
Moon 10:24 PM CDT (7/26) 10:13 AM CDT (7/26)
Length of Visible Light 14h 36m
Length of Day
13h 43m
Waning Gibbous, 80% of the Moon is Illuminated
Jul 26
Waning Gibbous
Jul 29
Last Quarter
Aug 6
New
Aug 14
First Quarter
Aug 20
Full

Hourly Weather History & Observations

Time (CDT) Temp. Heat Index Dew Point Humidity Pressure Visibility Wind Dir Wind Speed Gust Speed Precip Events Conditions
12:58 AM 77.2 °F - 71.8 °F 83% 30.00 in 10.0 mi North 5.8 mph - N/A   Clear
1:58 AM 76.5 °F - 71.8 °F 85% 30.00 in 10.0 mi NNE 3.5 mph - N/A   Clear
2:58 AM 75.4 °F - 71.4 °F 87% 29.99 in 10.0 mi North 5.8 mph - N/A   Clear
3:58 AM 74.8 °F - 70.9 °F 87% 29.99 in 10.0 mi North 6.9 mph - N/A   Clear
4:58 AM 74.8 °F - 70.5 °F 86% 30.01 in 10.0 mi North 5.8 mph - N/A   Clear
5:38 AM 75.2 °F - 69.8 °F 83% 30.00 in 10.0 mi North 1.2 mph - N/A   Light Drizzle
5:46 AM 75.2 °F - 71.6 °F 89% 30.01 in 10.0 mi NNW 3.5 mph - N/A   Clear
5:58 AM 74.7 °F - 69.8 °F 85% 30.02 in 10.0 mi North 3.5 mph - 0.00 in   Clear
6:58 AM 75.2 °F - 71.2 °F 87% 30.03 in 10.0 mi North 4.6 mph - N/A   Partly Cloudy
7:41 AM 78.8 °F - 71.6 °F 78% 30.03 in 10.0 mi North 6.9 mph - N/A   Light Drizzle
7:50 AM 78.8 °F - 71.6 °F 78% 30.03 in 10.0 mi North 5.8 mph - N/A   Clear
7:58 AM 77.9 °F - 70.9 °F 79% 30.04 in 10.0 mi North 6.9 mph - 0.00 in   Clear
8:58 AM 81.7 °F 85.4 °F 70.2 °F 68% 30.03 in 10.0 mi North 3.5 mph - N/A   Clear
9:58 AM 84.2 °F 88.4 °F 69.8 °F 62% 30.04 in 10.0 mi North 1.2 mph - N/A   Partly Cloudy
10:33 AM 87.8 °F 92.6 °F 69.8 °F 55% 30.04 in 10.0 mi NW 4.6 mph - N/A Rain Light Rain
10:43 AM 87.8 °F 93.8 °F 71.6 °F 58% 30.04 in 10.0 mi Variable 3.5 mph - N/A   Partly Cloudy
10:58 AM 86.2 °F 92.2 °F 72.0 °F 62% 30.05 in 10.0 mi SW 9.2 mph - 0.00 in   Partly Cloudy
11:58 AM 87.3 °F 92.8 °F 70.9 °F 58% 30.05 in 10.0 mi SSW 10.4 mph - N/A   Clear
12:58 PM 87.6 °F 93.1 °F 70.7 °F 57% 30.04 in 10.0 mi SW 11.5 mph - N/A   Clear
1:58 PM 87.6 °F 93.9 °F 71.6 °F 59% 30.02 in 10.0 mi WSW 15.0 mph - N/A   Partly Cloudy
2:58 PM 86.9 °F 93.3 °F 72.0 °F 61% 30.00 in 10.0 mi SW 11.5 mph - N/A   Clear
3:58 PM 87.6 °F 95.2 °F 73.2 °F 62% 29.99 in 10.0 mi SW 12.7 mph - N/A   Clear
4:58 PM 86.4 °F 94.2 °F 73.6 °F 66% 29.98 in 10.0 mi West 11.5 mph - N/A   Clear
5:58 PM 85.3 °F 92.6 °F 73.8 °F 68% 29.98 in 10.0 mi WSW 10.4 mph - N/A   Clear
6:58 PM 84.9 °F 91.8 °F 73.2 °F 68% 29.98 in 10.0 mi West 9.2 mph - N/A   Clear
7:58 PM 83.8 °F 90.8 °F 73.8 °F 72% 29.98 in 10.0 mi West 8.1 mph - N/A   Partly Cloudy
8:58 PM 83.3 °F 89.9 °F 73.9 °F 73% 29.98 in 10.0 mi WSW 8.1 mph - N/A   Clear
9:58 PM 83.1 °F 89.5 °F 73.6 °F 73% 29.99 in 10.0 mi West 6.9 mph - N/A   Clear
10:58 PM 82.6 °F 88.8 °F 74.1 °F 75% 29.98 in 10.0 mi West 5.8 mph - N/A   Clear
11:58 PM 81.5 °F 86.9 °F 73.8 °F 77% 29.98 in 10.0 mi West 4.6 mph - N/A   Clear